When you browse on this site, cookies collect data to enhance your experience and personalize the content and advertising you see.
Visit our Privacy Policy to learn more. By continuing to use the site, you agree to this use of cookies and data.
  • In Hungary
  • List of Countries
  • For 7 days
  • Water Temperature
  • Weather Map
  • News
  • Weather Widgets
  • user-avatar
    Login

    Hourly Weather Shrewsbury

    Today, 2 June, Tuesday

    Time Temperature Precipitation Wind Pressure Humidity
    00:00 +12°C° 0 mm 1 mps 762 mmHg 90%
    01:00 +11°C° 0 mm 1 mps 762 mmHg 90%
    02:00 +11°C° 0 mm 1 mps 762 mmHg 89%
    03:00 +10°C° 0 mm 1 mps 761 mmHg 89%
    04:00 +11°C° 0 mm 1 mps 761 mmHg 86%
    05:00 +11°C° 0 mm 0 mps 761 mmHg 84%
    06:00 +11°C° 0 mm 0 mps 761 mmHg 81%
    07:00 +13°C° 0 mm 0 mps 761 mmHg 76%
    08:00 +15°C° 0 mm 0 mps 761 mmHg 71%
    09:00 +16°C° 0 mm 0 mps 760 mmHg 66%
    10:00 +20°C° 0 mm 1 mps 760 mmHg 63%
    11:00 +21°C° 0 mm 1 mps 760 mmHg 60%
    12:00 +21°C° 0 mm 2 mps 759 mmHg 57%
    13:00 +21°C° 0 mm 2 mps 759 mmHg 56%
    14:00 +23°C° 0 mm 2 mps 758 mmHg 56%
    15:00 +22°C° 0 mm 3 mps 758 mmHg 55%
    16:00 +22°C° 0 mm 3 mps 757 mmHg 60%
    17:00 +21°C° 0 mm 3 mps 757 mmHg 65%
    18:00 +20°C° 0 mm 3 mps 756 mmHg 71%
    19:00 +19°C° 0 mm 3 mps 756 mmHg 74%
    20:00 +17°C° 0 mm 2 mps 756 mmHg 77%
    21:00 +15°C° 0 mm 2 mps 755 mmHg 80%
    22:00 +15°C° 0 mm 2 mps 755 mmHg 79%
    23:00 +14°C° 0 mm 1 mps 754 mmHg 79%

    Tomorrow, 3 June, Wednesday

    Time Temperature Precipitation Wind Pressure Humidity
    00:00 +13°C° 0 mm 1 mps 754 mmHg 78%
    01:00 +13°C° 0.3 mm 1 mps 753 mmHg 82%
    02:00 +13°C° 0.3 mm 1 mps 753 mmHg 87%
    03:00 +13°C° 0.3 mm 1 mps 752 mmHg 91%
    04:00 +13°C° 0.9 mm 2 mps 752 mmHg 93%
    05:00 +13°C° 0.9 mm 2 mps 752 mmHg 95%
    06:00 +13°C° 0.9 mm 2 mps 751 mmHg 97%
    07:00 +13°C° 1.4 mm 2 mps 751 mmHg 96%
    08:00 +12°C° 1.4 mm 3 mps 752 mmHg 95%
    09:00 +12°C° 1.4 mm 3 mps 752 mmHg 94%
    10:00 +12°C° 0.3 mm 3 mps 752 mmHg 94%
    11:00 +12°C° 0.3 mm 4 mps 752 mmHg 93%
    12:00 +12°C° 0.3 mm 4 mps 752 mmHg 93%
    13:00 +12°C° 0.1 mm 4 mps 752 mmHg 91%
    14:00 +12°C° 0.1 mm 5 mps 752 mmHg 89%
    15:00 +13°C° 0.1 mm 6 mps 752 mmHg 87%
    16:00 +12°C° 0.1 mm 5 mps 751 mmHg 87%
    17:00 +12°C° 0.1 mm 4 mps 751 mmHg 87%
    18:00 +12°C° 0.1 mm 3 mps 751 mmHg 87%
    19:00 +11°C° 0 mm 3 mps 752 mmHg 88%
    20:00 +11°C° 0 mm 3 mps 752 mmHg 90%
    21:00 +10°C° 0 mm 2 mps 752 mmHg 91%
    22:00 +10°C° 0 mm 3 mps 752 mmHg 92%
    23:00 +10°C° 0 mm 3 mps 752 mmHg 93%

    Day after tomorrow, 4 June, Thursday

    Time Temperature Precipitation Wind Pressure Humidity
    00:00 +10°C° 0 mm 3 mps 751 mmHg 93%
    01:00 +9°C° 0 mm 3 mps 751 mmHg 93%
    02:00 +9°C° 0 mm 3 mps 751 mmHg 93%
    03:00 +9°C° 0 mm 3 mps 750 mmHg 93%
    04:00 +9°C° 0 mm 2 mps 750 mmHg 92%
    05:00 +9°C° 0 mm 2 mps 750 mmHg 91%
    06:00 +9°C° 0 mm 2 mps 750 mmHg 90%
    07:00 +10°C° 0.1 mm 2 mps 750 mmHg 87%
    08:00 +11°C° 0.1 mm 3 mps 749 mmHg 85%
    09:00 +11°C° 0.1 mm 4 mps 749 mmHg 83%
    10:00 +12°C° 0.1 mm 5 mps 749 mmHg 75%
    11:00 +13°C° 0.1 mm 5 mps 748 mmHg 68%
    12:00 +14°C° 0.1 mm 6 mps 748 mmHg 61%
    13:00 +14°C° 0.2 mm 6 mps 747 mmHg 65%
    14:00 +14°C° 0.2 mm 6 mps 747 mmHg 69%
    15:00 +14°C° 0.2 mm 6 mps 746 mmHg 73%
    16:00 +13°C° 0.3 mm 6 mps 746 mmHg 78%
    17:00 +11°C° 0.3 mm 6 mps 746 mmHg 83%
    18:00 +12°C° 0.3 mm 5 mps 745 mmHg 87%
    19:00 +10°C° 0.1 mm 5 mps 745 mmHg 89%
    20:00 +8°C° 0.1 mm 4 mps 745 mmHg 91%
    21:00 +8°C° 0.1 mm 3 mps 745 mmHg 92%
    22:00 +7°C° 0 mm 4 mps 745 mmHg 93%
    23:00 +7°C° 0 mm 4 mps 745 mmHg 93%

    5 June, Friday

    Time Temperature Precipitation Wind Pressure Humidity
    00:00 +6°C° 0 mm 4 mps 744 mmHg 93%
    01:00 +6°C° 0 mm 4 mps 744 mmHg 93%
    02:00 +6°C° 0 mm 4 mps 744 mmHg 93%
    03:00 +5°C° 0 mm 4 mps 744 mmHg 92%
    04:00 +6°C° 0 mm 4 mps 744 mmHg 91%
    05:00 +7°C° 0 mm 4 mps 744 mmHg 90%
    06:00 +7°C° 0 mm 4 mps 744 mmHg 90%
    07:00 +8°C° 0.1 mm 5 mps 744 mmHg 84%
    08:00 +10°C° 0.1 mm 5 mps 744 mmHg 79%
    09:00 +11°C° 0.1 mm 6 mps 744 mmHg 74%
    10:00 +11°C° 0.1 mm 6 mps 744 mmHg 69%
    11:00 +12°C° 0.1 mm 7 mps 744 mmHg 63%
    12:00 +14°C° 0.1 mm 7 mps 744 mmHg 58%
    13:00 +14°C° 0.1 mm 7 mps 743 mmHg 58%
    14:00 +14°C° 0.1 mm 7 mps 743 mmHg 58%
    15:00 +14°C° 0.1 mm 6 mps 743 mmHg 58%
    16:00 +13°C° 0.3 mm 6 mps 743 mmHg 67%
    17:00 +11°C° 0.3 mm 6 mps 743 mmHg 75%
    18:00 +9°C° 0.3 mm 6 mps 743 mmHg 84%
    19:00 +8°C° 0.1 mm 5 mps 743 mmHg 87%
    20:00 +7°C° 0.1 mm 5 mps 744 mmHg 89%
    21:00 +6°C° 0.1 mm 4 mps 744 mmHg 91%
    22:00 +5°C° 0 mm 4 mps 745 mmHg 91%
    23:00 +5°C° 0 mm 4 mps 745 mmHg 90%

    6 June, Saturday

    Time Temperature Precipitation Wind Pressure Humidity
    00:00 +4°C° 0 mm 4 mps 745 mmHg 89%
    01:00 +3°C° 0 mm 5 mps 745 mmHg 89%
    02:00 +3°C° 0 mm 5 mps 745 mmHg 89%
    03:00 +3°C° 0 mm 6 mps 745 mmHg 89%
    04:00 +3°C° 0 mm 6 mps 745 mmHg 87%
    05:00 +4°C° 0 mm 6 mps 745 mmHg 85%
    06:00 +5°C° 0 mm 7 mps 745 mmHg 83%
    07:00 +6°C° 0.1 mm 7 mps 745 mmHg 77%
    08:00 +7°C° 0.1 mm 8 mps 745 mmHg 72%
    09:00 +8°C° 0.1 mm 9 mps 745 mmHg 66%
    10:00 +9°C° 0.2 mm 8 mps 746 mmHg 67%
    11:00 +10°C° 0.2 mm 8 mps 746 mmHg 68%
    12:00 +10°C° 0.2 mm 8 mps 746 mmHg 68%
    13:00 +10°C° 0.2 mm 8 mps 746 mmHg 69%
    14:00 +10°C° 0.2 mm 8 mps 746 mmHg 69%
    15:00 +10°C° 0.2 mm 8 mps 746 mmHg 70%
    16:00 +10°C° 0.1 mm 8 mps 746 mmHg 69%
    17:00 +10°C° 0.1 mm 8 mps 746 mmHg 68%
    18:00 +10°C° 0.1 mm 7 mps 746 mmHg 67%
    19:00 +9°C° 0 mm 7 mps 746 mmHg 68%
    20:00 +9°C° 0 mm 6 mps 746 mmHg 70%
    21:00 +8°C° 0 mm 6 mps 746 mmHg 71%
    22:00 +8°C° 0 mm 6 mps 746 mmHg 72%
    23:00 +9°C° 0 mm 6 mps 746 mmHg 73%

    7 June, Sunday

    Time Temperature Precipitation Wind Pressure Humidity
    00:00 +9°C° 0 mm 6 mps 746 mmHg 75%
    01:00 +9°C° 0.3 mm 6 mps 746 mmHg 81%
    02:00 +8°C° 0.3 mm 6 mps 745 mmHg 86%
    03:00 +8°C° 0.3 mm 6 mps 745 mmHg 92%
    04:00 +8°C° 0.3 mm 6 mps 746 mmHg 93%
    05:00 +8°C° 0.3 mm 6 mps 746 mmHg 93%
    06:00 +8°C° 0.3 mm 6 mps 746 mmHg 93%
    07:00 +9°C° 0.3 mm 6 mps 746 mmHg 92%
    08:00 +10°C° 0.3 mm 6 mps 746 mmHg 91%
    09:00 +10°C° 0.3 mm 7 mps 746 mmHg 89%
    10:00 +10°C° 0.5 mm 7 mps 746 mmHg 90%
    11:00 +10°C° 0.5 mm 7 mps 746 mmHg 91%
    12:00 +10°C° 0.5 mm 6 mps 747 mmHg 92%
    13:00 +10°C° 0.3 mm 6 mps 747 mmHg 92%
    14:00 +10°C° 0.3 mm 6 mps 747 mmHg 92%
    15:00 +10°C° 0.3 mm 7 mps 747 mmHg 92%
    16:00 +10°C° 0.2 mm 6 mps 747 mmHg 92%
    17:00 +9°C° 0.2 mm 6 mps 747 mmHg 92%
    18:00 +9°C° 0.2 mm 6 mps 747 mmHg 92%
    19:00 +9°C° 0.3 mm 6 mps 747 mmHg 93%
    20:00 +9°C° 0.3 mm 6 mps 748 mmHg 93%
    21:00 +9°C° 0.3 mm 6 mps 748 mmHg 94%
    22:00 +9°C° 0.4 mm 6 mps 748 mmHg 94%
    23:00 +9°C° 0.4 mm 5 mps 748 mmHg 94%
    Show more